Location: Recife
(8.0585°S, 34.8848°W)
Time: 20:55:21
(UTC-03:00)

S-56A Canister/Altair - Pass Details

Date: 15 April 2026
Orbit: 633 x 2484 km, 38.9° (Epoch: 16 May)

Event Time Altitude Azimuth Distance (km) Brightness Sun altitude
Rises 11:03:38 0° 338° (NNW) 6,042 12.3 71.6°
Reaches altitude 10° 11:09:29 10° 353° (N) 4,841 12.0 71.9°
Maximum altitude 11:18:07 20° 33° (NNE) 3,638 11.5 72.0°
Drops below altitude 10° 11:25:11 10° 76° (ENE) 3,891 11.3 72.0°
Sets 11:29:05 0° 92° (E) 4,556 11.5 71.9°
